Location: Buch
(49.7331°N, 12.1098°E)
Time: 23:10:19
(UTC+00:00)

SJ 16-02 - Pass Details

Date: 12 May 2021
Orbit: 606 x 616 km, 75.0° (Epoch: 18 June)

Event Time Altitude Azimuth Distance (km) Brightness Sun altitude
Exits shadow 21:32:51 - 228° (SW) 2,649 4.4 -18.7°
Reaches altitude 10° 21:34:40 10° 236° (WSW) 1,978 3.8 -18.8°
Maximum altitude 21:38:40 33° 301° (WNW) 1,048 3.0 -19.1°
Drops below altitude 10° 21:42:43 10° 6° (N) 1,991 4.9 -19.3°
Sets 21:45:09 0° 17° (NNE) 2,900 5.7 -19.5°
